Погода в Кассиопи

Греция     39°47′19″N   19°55′21″E
темп.,
°C
ветер,
м/с
пор.,
м/с
влажн.,
%
обл.,
%
осадки,
мм/ч
давл.,
гПа
погр.,
м
6 мая, чт
чт600:00+16ююв4485100 0.1 1014332
03:00+16ююв2285100 0.3 1015199
06:00+15ююв118692 0.0 1014142
09:00+17ююв117896 0.0 1015253
12:00+18зсз227346 0.0 1016404
15:00+18зсз127795 0.0 1017392
18:00+18сз227859 0.0 1016283
21:00+16ссв11857 0.0 101676
7 мая, пт
пт700:00+16ссв0182100 0.0 101621
03:00+16зюз228192 0.0 101640
06:00+16св2274100 0.0 101471
09:00+18ю1266100 0.0 101554
12:00+21юз3253100 0.0 1014270
15:00+20з11558 0.0 1013336
18:00+19з1162100 0.3 1013213
21:00+17с227392 0.3 101340
8 мая, сб
сб800:00+18ссз33615 0.0 101232
03:00+17сз33640 0.0 101121
06:00+17с22660 0.0 101117
09:00+19ссз44600 0.0 1011158
12:00+20сз556315 0.0 1012278
15:00+20сз677195 0.0 1012250
18:00+20сз46710 0.0 1011161
21:00+19ссз44725 0.0 101240
9 мая, вс
вс900:00+18с23740 0.0 101320
03:00+17с11770 0.0 101412
06:00+17в11755 0.0 101511
09:00+20вюв22645 0.0 1017113
12:00+21ююз32645 0.0 1019335
15:00+20сз22720 0.0 1019325
18:00+19ссз22730 0.0 1019208
21:00+18сз22790 0.0 101937
10 мая, пн
пн1000:00+17вюв01820 0.0 102011
03:00+17вюв11800 0.0 101911
06:00+17в22720 0.0 101821
09:00+18св11640 0.0 1019168
12:00+19сз33680 0.0 1019361
15:00+19сз34742 0.0 1018348
18:00+18сз23786 0.0 1017255
21:00+17ссз22830 0.0 101754